Weather Roundup
Issued by NWS

Home | Current Version | Previous Version | Text Only | Print | Product List | Glossary On
Versions: 1 2 3 4 5 6 7 8 9 10 11 12 13 14 15 16 17 18 19 20 21 22 23 24 25 26 27 28 29 30 31 32 33 34 35 36 37 38 39 40 41 42 43 44 45 46 47 48 49 50
000
NZUS93 KARX 231310
HRRWXR

CURRENT HOURLY OBSERVATIONS ACROSS
MUCH OF THE UPPER MISSISSIPPI VALLEY
NATIONAL WEATHER SERVICE LA CROSSE WI
800 AM CDT TUE SEP 23 2014


...SOUTHEAST MINNESOTA...


CITY           SKY/WX    TMP DP  RH WIND       PRES   REMARKS
ROCHESTER      FAIR      49  47  93 S7        30.26R
ROCHESTER/MAYO FAIR      49  45  84 SE5       30.26R
WINONA         FOG       52  50  93 SE3       30.27R VSB<1/4
AUSTIN         FAIR      48  46  93 CALM      30.24S
ALBERT LEA     FAIR      52  50  93 S3        30.24R
DODGE CENTER   FAIR      52  48  87 S7        30.24S
PRESTON        FAIR      49  49 100 S3        30.27R
OWATONNA       FAIR      54  48  82 SE8       30.23R
FARIBAULT      FAIR      54  46  76 S3        30.22S
$$

...ELSEWHERE IN MINNESOTA...


CITY           SKY/WX    TMP DP  RH WIND       PRES   REMARKS
MINNEAPOLIS    FAIR      53  49  86 SE5       30.22R
INTNL FALLS    FAIR      47  45  93 SE3       30.14R
DULUTH         FAIR      55  49  80 SW3       30.19S
RED WING       FAIR      48  48 100 CALM      30.23R
REDWOOD FALLS  FAIR      51  47  86 S8        30.16R
MANKATO        FAIR      52  45  76 S9        30.20S
WORTHINGTON    FAIR      54  48  82 S9        30.18S
FAIRMONT       FAIR      50  45  81 S8        30.20S
$$

...SOUTHWEST WISCONSIN...


CITY           SKY/WX    TMP DP  RH WIND       PRES   REMARKS
LA CROSSE      FOG       50  49  96 SE6       30.27S VSB 1/4
PRAIRIE DU CHI FOG       46  45  95 CALM      30.29R VSB 3/4
BOSCOBEL       FOG       48  46  93 CALM      30.31R VSB<1/4
LONE ROCK      NOT AVBL
PLATTEVILLE    FAIR      49  46  90 SE5       30.31R
FORT MC COY    CLOUDY    40  40 100 CALM      30.29R
VIROQUA        FAIR      51  48  89 CALM      30.28R
WIS DELLS      FAIR      50  47  88 CALM      30.28S
$$

...ELSEWHERE IN WISCONSIN...


CITY           SKY/WX    TMP DP  RH WIND       PRES   REMARKS
MILWAUKEE      FAIR      56  46  69 W3        30.30S
MADISON        FAIR      50  46  86 CALM      30.30R
GREEN BAY      FAIR      52  51  97 SW5       30.28R
EAU CLAIRE     FAIR      44  43  96 CALM      30.24R FOG
BLACK RVR FLS  FOG       37  37 100 CALM      30.26S VSB<1/4
MEDFORD        FAIR      43  43 100 CALM      30.26S
WAUSAU         FAIR      47  47 100 CALM      30.26S
WIS RAPIDS     FAIR      47  46  97 CALM      30.29R
MARSHFIELD     FAIR      49  48  97 CALM      30.27R FOG
RICE LAKE      FAIR      45  44  97 CALM      30.25S FOG
$$

...NORTHEAST IOWA...


CITY           SKY/WX    TMP DP  RH WIND       PRES   REMARKS
WATERLOO       FAIR      49  47  93 SE5       30.27R
DUBUQUE        FAIR      49  46  90 CALM      30.30R
DECORAH        FAIR      50  46  87 S3        30.27R
MASON CITY     FAIR      48  47  96 CALM      30.26R
CHARLES CITY   FAIR      48  46  93 SE6       30.27R
OELWEIN        FAIR      46  46 100 SE7       30.29R
$$

...ELSEWHERE IN IOWA...


CITY           SKY/WX    TMP DP  RH WIND       PRES   REMARKS
DES MOINES     MOCLDY    55  49  80 S6        30.25R
IOWA CITY      FAIR      49  48  97 CALM      30.31R
FORT DODGE     FAIR      54  48  82 S5        30.24R
MARSHALLTOWN   FAIR      50  48  93 E7        30.26R
CEDAR RAPIDS   FAIR      49  48  97 SE6       30.29R
$$

...NORTHERN ILLINOIS...


CITY           SKY/WX    TMP DP  RH WIND       PRES   REMARKS
CHICAGO-OHARE  FAIR      54  43  66 SW5       30.33R
DUPAGE         FAIR      51  46  83 CALM      30.33R
CHICAGO-MIDWAY FAIR      55  46  71 SW6       30.33R
MOLINE         FAIR      49  46  90 CALM      30.31R
ROCKFORD       FAIR      48  44  86 S3        30.35R
STERLING       FAIR      48  43  81 CALM      30.32S
PEORIA         FAIR      54  47  77 CALM      30.33R
$$

NOTE: "FAIR" INDICATES FEW OR NO CLOUDS BELOW 12,000 FEET WITH NO
SIGNIFICANT WEATHER AND/OR OBSTRUCTIONS TO VISIBILITY. WIND
SPEEDS ARE IN MILES-PER-HOUR.



USA.gov is the U.S. government's official web portal to all federal, state and local government web resources and services.